Location: Cuiry
(49.3858°N, 3.7708°E)
Time: 23:07:46
(UTC+00:00)

USA 215 - Pass Details

Date: 12 January 2026
Orbit: 1098 x 1109 km, 123.0° (Epoch: 10 January)

Event Time Altitude Azimuth Distance (km) Brightness Sun altitude
Exits shadow 18:10:45 30° 73° (ENE) 1,875 3.9 -19.0°
Maximum altitude 18:14:01 57° 139° (SE) 1,285 3.4 -19.5°
Drops below altitude 10° 18:20:25 10° 217° (SW) 2,950 6.1 -20.5°
Sets 18:22:56 0° 221° (SW) 3,904 6.9 -20.9°
